User: anonymous   Login
Location: G�migny
(47.9646°N, 1.6950°E)
Time: 02:08:35
(UTC+00:00)
Language:

YAOGAN 6 - Orbit

View from above orbital plane
View from above orbital plane
View from above satellite
View from above satellite

Ground track
Ground track

The orbit data is extracted from the following two-line orbital elements,

1 34839U 09021A   21024.55269450  .00000794  00000-0  32047-4 0  9994
2 34839  97.0421  26.4447 0026354 315.8812  44.0325 15.27247398653524
Epoch (UTC): 24 January 2021 13:15:52
Eccentricity: 0.0026354
inclination: 97.0421°
perigee height: 466 km
apogee height: 502 km
right ascension of ascending node: 26.4447°
argument of perigee: 315.8812°
revolutions per day: 15.27247398
mean anomaly at epoch: 44.0325°
orbit number at epoch: 65352

The dashed part of the orbit path shows where the satellite is in the earth's shadow,  

DLR